TimeEDT,TemperatureF,Dew PointF,Humidity,Sea Level PressureIn,VisibilityMPH,Wind Direction,Wind SpeedMPH,Gust SpeedMPH,PrecipitationIn,Events,Conditions,WindDirDegrees,DateUTC
12:13 AM,53.6,46.4,77,30.07,10.0,Calm,Calm,-,N/A,,Overcast,0,2013-09-23 04:13:00
12:33 AM,53.6,46.4,77,30.07,10.0,Calm,Calm,-,N/A,,Overcast,0,2013-09-23 04:33:00
12:54 AM,51.8,46.4,82,30.07,10.0,Calm,Calm,-,N/A,,Overcast,0,2013-09-23 04:54:00
1:14 AM,51.8,46.4,82,30.07,10.0,Calm,Calm,-,N/A,,Overcast,0,2013-09-23 05:14:00
1:34 AM,51.8,48.2,88,30.08,10.0,Calm,Calm,-,N/A,,Overcast,0,2013-09-23 05:34:00
1:54 AM,50.0,48.2,94,30.08,10.0,Calm,Calm,-,N/A,,Overcast,0,2013-09-23 05:54:00
2:14 AM,50.0,48.2,94,30.08,10.0,Calm,Calm,-,N/A,,Overcast,0,2013-09-23 06:14:00
2:34 AM,51.8,48.2,88,30.09,10.0,North,3.5,-,N/A,,Overcast,350,2013-09-23 06:34:00
2:54 AM,50.0,48.2,94,30.09,10.0,Calm,Calm,-,N/A,,Mostly Cloudy,0,2013-09-23 06:54:00
3:14 AM,48.2,46.4,93,30.09,10.0,Calm,Calm,-,N/A,,Mostly Cloudy,0,2013-09-23 07:14:00
3:34 AM,48.2,46.4,93,30.09,10.0,Calm,Calm,-,N/A,,Overcast,0,2013-09-23 07:34:00
3:55 AM,50.0,48.2,94,30.09,10.0,Calm,Calm,-,N/A,,Overcast,0,2013-09-23 07:55:00
4:15 AM,51.8,48.2,88,30.09,10.0,Calm,Calm,-,N/A,,Overcast,0,2013-09-23 08:15:00
4:35 AM,51.8,48.2,88,30.09,10.0,Calm,Calm,-,N/A,,Overcast,0,2013-09-23 08:35:00
4:55 AM,51.8,48.2,88,30.09,10.0,North,3.5,-,N/A,,Overcast,360,2013-09-23 08:55:00
5:15 AM,50.0,48.2,94,30.10,10.0,North,3.5,-,N/A,,Overcast,10,2013-09-23 09:15:00
5:35 AM,50.0,46.4,87,30.10,10.0,North,4.6,-,N/A,,Overcast,10,2013-09-23 09:35:00
5:55 AM,50.0,46.4,87,30.11,10.0,North,5.8,-,N/A,,Overcast,360,2013-09-23 09:55:00
6:15 AM,50.0,46.4,87,30.11,10.0,North,4.6,-,N/A,,Overcast,360,2013-09-23 10:15:00
6:35 AM,50.0,46.4,87,30.11,10.0,NNE,3.5,-,N/A,,Overcast,20,2013-09-23 10:35:00
6:55 AM,50.0,46.4,87,30.11,10.0,Calm,Calm,-,N/A,,Overcast,0,2013-09-23 10:55:00
7:16 AM,48.2,46.4,93,30.12,10.0,Calm,Calm,-,N/A,,Overcast,0,2013-09-23 11:16:00
7:36 AM,50.0,46.4,87,30.13,10.0,Calm,Calm,-,N/A,,Overcast,0,2013-09-23 11:36:00
7:56 AM,50.0,46.4,87,30.14,10.0,Calm,Calm,-,N/A,,Overcast,0,2013-09-23 11:56:00
8:16 AM,51.8,46.4,82,30.15,10.0,NE,3.5,-,N/A,,Overcast,40,2013-09-23 12:16:00
8:36 AM,51.8,48.2,88,30.15,10.0,NE,3.5,-,N/A,,Overcast,40,2013-09-23 12:36:00
8:56 AM,51.8,46.4,82,30.16,10.0,Calm,Calm,-,N/A,,Overcast,0,2013-09-23 12:56:00
9:16 AM,53.6,48.2,82,30.16,10.0,Calm,Calm,-,N/A,,Overcast,0,2013-09-23 13:16:00
9:36 AM,53.6,44.6,72,30.17,10.0,ENE,8.1,-,N/A,,Overcast,70,2013-09-23 13:36:00
9:56 AM,55.4,46.4,72,30.17,10.0,ENE,5.8,-,N/A,,Overcast,60,2013-09-23 13:56:00
10:17 AM,55.4,44.6,67,30.17,10.0,ENE,8.1,-,N/A,,Overcast,70,2013-09-23 14:17:00
10:32 AM,57.2,46.4,67,30.17,10.0,East,4.6,-,N/A,,Overcast,80,2013-09-23 14:32:00
10:52 AM,57.2,46.4,67,30.18,10.0,ENE,6.9,-,N/A,,Overcast,60,2013-09-23 14:52:00
11:12 AM,57.2,46.4,67,30.18,10.0,East,5.8,-,N/A,,Overcast,80,2013-09-23 15:12:00
11:32 AM,60.8,46.4,59,30.18,10.0,NNE,4.6,-,N/A,,Mostly Cloudy,20,2013-09-23 15:32:00
11:52 AM,60.8,46.4,59,30.17,10.0,NNE,5.8,-,N/A,,Mostly Cloudy,30,2013-09-23 15:52:00
12:12 PM,60.8,46.4,59,30.17,10.0,East,3.5,-,N/A,,Mostly Cloudy,90,2013-09-23 16:12:00
12:32 PM,59.0,44.6,59,30.17,10.0,North,8.1,-,N/A,,Mostly Cloudy,10,2013-09-23 16:32:00
12:52 PM,62.6,46.4,55,30.16,10.0,NNW,5.8,-,N/A,,Mostly Cloudy,340,2013-09-23 16:52:00
1:12 PM,60.8,46.4,59,30.17,10.0,NNE,4.6,-,N/A,,Overcast,30,2013-09-23 17:12:00
1:33 PM,62.6,46.4,55,30.17,10.0,NE,5.8,-,N/A,,Mostly Cloudy,40,2013-09-23 17:33:00
1:53 PM,62.6,44.6,52,30.17,10.0,ENE,4.6,-,N/A,,Mostly Cloudy,60,2013-09-23 17:53:00
2:13 PM,62.6,44.6,52,30.16,10.0,Calm,Calm,-,N/A,,Scattered Clouds,0,2013-09-23 18:13:00
2:33 PM,60.8,44.6,55,30.16,10.0,North,6.9,-,N/A,,Mostly Cloudy,360,2013-09-23 18:33:00
2:53 PM,62.6,44.6,52,30.15,10.0,ESE,5.8,-,N/A,,Scattered Clouds,110,2013-09-23 18:53:00
3:13 PM,62.6,44.6,52,30.15,10.0,NNE,4.6,-,N/A,,Mostly Cloudy,30,2013-09-23 19:13:00
3:33 PM,64.4,44.6,49,30.15,10.0,NE,5.8,-,N/A,,Scattered Clouds,40,2013-09-23 19:33:00
3:53 PM,64.4,44.6,49,30.14,10.0,East,5.8,-,N/A,,Clear,100,2013-09-23 19:53:00
4:13 PM,64.4,44.6,49,30.13,10.0,ENE,4.6,-,N/A,,Scattered Clouds,70,2013-09-23 20:13:00
4:33 PM,62.6,46.4,55,30.13,10.0,SSE,5.8,-,N/A,,Scattered Clouds,150,2013-09-23 20:33:00
4:54 PM,60.8,44.6,55,30.13,10.0,East,8.1,-,N/A,,Scattered Clouds,90,2013-09-23 20:54:00
5:14 PM,62.6,46.4,55,30.13,10.0,ESE,8.1,-,N/A,,Clear,110,2013-09-23 21:14:00
5:34 PM,62.6,46.4,55,30.13,10.0,SE,8.1,-,N/A,,Clear,130,2013-09-23 21:34:00
5:54 PM,62.6,48.2,59,30.13,10.0,ESE,8.1,-,N/A,,Clear,110,2013-09-23 21:54:00
6:14 PM,60.8,48.2,63,30.13,10.0,East,4.6,-,N/A,,Clear,100,2013-09-23 22:14:00
6:34 PM,60.8,48.2,63,30.13,10.0,ESE,3.5,-,N/A,,Clear,120,2013-09-23 22:34:00
6:54 PM,60.8,48.2,63,30.12,10.0,ESE,3.5,-,N/A,,Clear,110,2013-09-23 22:54:00
7:14 PM,59.0,48.2,67,30.12,10.0,ESE,3.5,-,N/A,,Clear,110,2013-09-23 23:14:00
7:34 PM,57.2,48.2,72,30.12,10.0,Calm,Calm,-,N/A,,Clear,0,2013-09-23 23:34:00
7:55 PM,53.6,50.0,88,30.12,10.0,Calm,Calm,-,N/A,,Clear,0,2013-09-23 23:55:00
8:15 PM,53.6,50.0,88,30.12,10.0,Calm,Calm,-,N/A,,Mostly Cloudy,0,2013-09-24 00:15:00
8:35 PM,53.6,50.0,88,30.12,10.0,Calm,Calm,-,N/A,,Mostly Cloudy,0,2013-09-24 00:35:00
8:55 PM,53.6,51.8,94,30.12,10.0,Calm,Calm,-,N/A,,Overcast,0,2013-09-24 00:55:00
9:15 PM,53.6,51.8,94,30.12,10.0,Calm,Calm,-,N/A,,Overcast,0,2013-09-24 01:15:00
9:35 PM,53.6,50.0,88,30.12,10.0,Calm,Calm,-,N/A,,Mostly Cloudy,0,2013-09-24 01:35:00
9:55 PM,51.8,50.0,94,30.12,10.0,Calm,Calm,-,N/A,,Mostly Cloudy,0,2013-09-24 01:55:00
10:15 PM,51.8,50.0,94,30.13,10.0,Calm,Calm,-,N/A,,Mostly Cloudy,0,2013-09-24 02:15:00
10:35 PM,53.6,51.8,94,30.13,10.0,Calm,Calm,-,N/A,,Overcast,0,2013-09-24 02:35:00
10:56 PM,53.6,51.8,94,30.13,10.0,Calm,Calm,-,N/A,,Mostly Cloudy,0,2013-09-24 02:56:00
11:16 PM,51.8,50.0,94,30.13,10.0,Calm,Calm,-,N/A,,Scattered Clouds,0,2013-09-24 03:16:00
11:36 PM,51.8,50.0,94,30.13,10.0,Calm,Calm,-,N/A,,Mostly Cloudy,0,2013-09-24 03:36:00
11:56 PM,51.8,48.2,88,30.13,10.0,Calm,Calm,-,N/A,,Mostly Cloudy,0,2013-09-24 03:56:00